This is the latest recevied weather packets stored in our database for station/object CE1RLP-31. If no packets are shown the sender has not sent any weather packets the latest 10 day(s).
| Time | Temp. | Humidity | Pressure | Rain* | Wind** | Luminosity | Snow |
|---|---|---|---|---|---|---|---|
| 1777936963 | 11.67° C | 12% | 1099.1 hPa | - | - | - | - |
| 1777936063 | 11.67° C | 12% | 1099 hPa | - | - | - | - |
| 1777935163 | 11.67° C | 14% | 1098.9 hPa | - | - | - | - |
| 1777934263 | 12.22° C | 16% | 1098.7 hPa | - | - | - | - |
| 1777933363 | 12.78° C | 17% | 1098.7 hPa | - | - | - | - |
| 1777932463 | 13.33° C | 20% | 1098.6 hPa | - | - | - | - |
| 1777931564 | 13.89° C | 17% | 1098.4 hPa | - | - | - | - |
| 1777930664 | 14.44° C | 18% | 1098.5 hPa | - | - | - | - |
| 1777929764 | 15° C | 17% | 1098.4 hPa | - | - | - | - |
| 1777928864 | 15° C | 18% | 1098.3 hPa | - | - | - | - |
| 1777927964 | 15° C | 17% | 1098.3 hPa | - | - | - | - |
| 1777927064 | 15.56° C | 16% | 1098.4 hPa | - | - | - | - |
| 1777926163 | 16.11° C | 16% | 1098.4 hPa | - | - | - | - |
| 1777925263 | 16.11° C | 15% | 1098.4 hPa | - | - | - | - |
| 1777924363 | 16.67° C | 14% | 1098.4 hPa | - | - | - | - |
| 1777923474 | 16.67° C | 12% | 1098.5 hPa | - | - | - | - |
| 1777922563 | 17.22° C | 12% | 1098.5 hPa | - | - | - | - |
| 1777921663 | 17.78° C | 12% | 1098.5 hPa | - | - | - | - |
| 1777920763 | 18.33° C | 12% | 1099.8 hPa | - | - | - | - |
| 1777919863 | 18.89° C | 11% | 1098.7 hPa | - | - | - | - |
| 1777918963 | 18.89° C | 12% | 1098.7 hPa | - | - | - | - |
| 1777918063 | 19.44° C | 12% | 1098.8 hPa | - | - | - | - |
| 1777917162 | 20° C | 12% | 1098.9 hPa | - | - | - | - |
| 1777916262 | 20° C | 11% | 1099.1 hPa | - | - | - | - |
| 1777915362 | 20.56° C | 11% | 1099.1 hPa | - | - | - | - |
* Rain since midnight (hover to see other rain measurements)
** Current wind speed in m/s (hover to see current wind gust speed)